+ View the NASA Portal
+ Center for Near-Earth Object Studies
IMPORTANT:
The SSD Announcement email list is now available. Major changes are coming in the near future, including possible hostname and/or URL changes. To be notified of such changes, subscribe to this email list.
Please visit
this page
for more details.
Don't show this message again
JPL Small-Body Database Browser
Search:
[
help
]
226279 (2003 BN)
Classification:
Main-belt Asteroid
SPK-ID:
2226279
[
Ephemeris
|
Orbit Diagram
|
Orbital Elements
|
Mission Design
|
Physical Parameters
|
Discovery Circumstances
|
Close-Approach Data
]
[ show orbit diagram ]
Orbital Elements at Epoch 2458600.5 (2019-Apr-27.0) TDB
Reference:
JPL 13
(heliocentric ecliptic J2000)
Element
Value
Uncertainty (1-sigma)
Units
e
.1584689016686108
4.9715e-08
a
2.364964224318948
1.7504e-08
au
q
1.990190941205566
1.1754e-07
au
i
2.382405676410139
5.8026e-06
deg
node
105.7051722539848
0.00016363
deg
peri
335.2632765852212
0.00016524
deg
M
192.8924011686586
2.5843e-05
deg
t
p
2459217.136159407220
(2021-Jan-02.63615941)
9.9192e-05
TDB
period
1328.419646617319
3.64
1.4748e-05
4.038e-08
d
yr
n
.2709987020417096
3.0087e-09
deg/d
Q
2.739737507432329
2.0278e-08
au
Orbit Determination Parameters
# obs. used (total)
265
data-arc span
5590 days (15.30 yr)
first obs. used
2002-12-31
last obs. used
2018-04-21
planetary ephem.
DE431
SB-pert. ephem.
SB431-N16
condition code
0
norm. resid. RMS
.57978
source
ORB
producer
Otto Matic
solution date
2018-May-07 06:11:12
Additional Information
Earth MOID
= 1.00621 au
Jupiter MOID
= 2.48374 au
T_jup
= 3.530
[ show covariance matrix ]
[
Ephemeris
|
Orbit Diagram
|
Orbital Elements
|
Mission Design
|
Physical Parameters
|
Discovery Circumstances
|
Close-Approach Data
]
Physical Parameter Table
Parameter
Symbol
Value
Units
Sigma
Reference
Notes
absolute magnitude
H
16.9
n/a
MPO437073
226279 (2003 BN)
Discovered 2003-Jan-23 by Dellinger, J. at Needville
Reference:
20091202/Numbers.arc
Last Updated:
2009-12-04
[ show close-approach data ]
[
Ephemeris
|
Orbit Diagram
|
Orbital Elements
|
Mission Design
|
Physical Parameters
|
Discovery Circumstances
|
Close-Approach Data
]
2019-Dec-13 08:17 UT
(server date/time)
Site Manager:
Ryan S. Park
Webmaster
:
Alan B. Chamberlin